Regional Weather Roundup
Issued by NWS Charleston, WV

Home | Current Version | Previous Version | Graphics & Text | Print | Product List | Glossary On
Versions: 1 2 3 4 5 6 7 8 9 10 11 12 13 14 15 16 17 18 19 20 21 22 23 24 25 26 27 28 29 30 31 32 33 34 35 36 37 38 39 40 41 42 43 44 45 46 47 48 49 50
000
ASUS41 KRLX 261210
RWRRLX
West Virginia Regional Weather Roundup
National Weather Service Charleston WV
700 AM EST MON JAN 26 2015

Note: "fair" indicates few or no clouds below 12,000 feet with no
significant weather and/or obstructions to visibility.

WVZ003-261300-
Northern Panhandle of West Virginia

CITY           SKY/WX    TMP DP  RH WIND       PRES   REMARKS
WHEELING       LGT SNOW  27  24  89 N7        29.67S FOG
$$

WVZ009-261300-
Northwest West Virginia

CITY           SKY/WX    TMP DP  RH WIND       PRES   REMARKS
PARKERSBURG    LGT RAIN  33  31  92 N5        29.70R
$$

WVZ006-261300-
Western West Virginia

CITY           SKY/WX    TMP DP  RH WIND       PRES   REMARKS
HUNTINGTON     CLOUDY    37  37 100 NW10      29.66R FOG
$$

WVZ015-261300-
West Central West Virginia

CITY           SKY/WX    TMP DP  RH WIND       PRES   REMARKS
CHARLESTON     CLOUDY    39  38  96 CALM      29.63R FOG
$$

WVZ022-031-261300-
North Central West Virginia

CITY           SKY/WX    TMP DP  RH WIND       PRES   REMARKS
CLARKSBURG     CLOUDY    35  35 100 CALM      29.64R FOG
MORGANTOWN     CLOUDY    36  31  82 VRB6      29.65R
$$

WVZ025-035-042-045-261300-
Southern West Virginia

CITY           SKY/WX    TMP DP  RH WIND       PRES   REMARKS
BECKLEY        CLOUDY    37  30  75 S5        29.60R
LOGAN          FOG       39  39 100 CALM      29.62R VSB<1/4
BLUEFIELD      CLOUDY    38  29  70 SE3       29.60S
LEWISBURG      CLOUDY    34  33  96 CALM      29.63R FOG
$$

WVZ047-261300-
Northern Mountains of West Virginia

CITY           SKY/WX    TMP DP  RH WIND       PRES   REMARKS
ELKINS         LGT RAIN  34  34 100 CALM      29.64R FOG
$$

WVZ052-261300-
Eastern Panhandle of West Virginia

CITY           SKY/WX    TMP DP  RH WIND       PRES   REMARKS
MARTINSBURG    LGT SNOW  31  27  85 N8        29.78R FOG
PETERSBURG     LGT SNOW  34  34 100 W3        29.73R
$$


USA.gov is the U.S. government's official web portal to all federal, state and local government web resources and services.